User: anonymous   Login
Location: Shades State Park
(39.9310°N, 87.0690°W)
Time: 04:23:31
(UTC-04:00)
Language:

H-2A R/B - Orbit

View from above orbital plane
View from above orbital plane
View from above satellite
View from above satellite

Ground track
Ground track

The orbit data is extracted from the following two-line orbital elements,

1 27601U 02056E   14304.27276146  .00000304  00000-0  12739-3 0  2227
2 27601 098.4747 023.7384 0071484 256.5778 171.1688 14.31442288620465
Epoch (UTC): 31 October 2014 06:32:46
Eccentricity: 0.0071484
inclination: 98.4747°
perigee height: 735 km
apogee height: 838 km
right ascension of ascending node: 23.7384°
argument of perigee: 256.5778°
revolutions per day: 14.31442288
mean anomaly at epoch: 171.1688°
orbit number at epoch: 62046

The dashed part of the orbit path shows where the satellite is in the earth's shadow,  

DLR